PDT,Max TemperatureF,Mean TemperatureF,Min TemperatureF,Max Dew PointF,MeanDew PointF,Min DewpointF,Max Humidity, Mean Humidity, Min Humidity, Max Sea Level PressureIn, Mean Sea Level PressureIn, Min Sea Level PressureIn, Max VisibilityMiles, Mean VisibilityMiles, Min VisibilityMiles, Max Wind SpeedMPH, Mean Wind SpeedMPH, Max Gust SpeedMPH,PrecipitationIn, CloudCover, Events, WindDirDegrees
2012-10-1,68,56,44,55,47,43,100,77,43,30.26,30.19,30.15,10,8,1,20,6,25,0.00,1,,358
2012-10-2,55,46,37,52,44,36,100,80,67,30.22,30.20,30.16,10,8,5,25,10,32,0.00,0,,358
2012-10-3,71,54,37,43,34,28,93,56,20,30.19,30.14,30.09,10,10,10,15,6,20,0.00,0,,46
2012-10-4,64,52,39,45,36,32,87,55,30,30.16,30.13,30.10,10,10,7,16,6,18,0.00,0,,18
2012-10-5,55,46,37,46,44,37,100,89,72,30.21,30.18,30.16,10,8,0,7,3,,0.00,3,Fog,196
2012-10-6,66,54,39,43,38,32,100,68,28,30.18,30.11,30.02,10,10,7,15,6,16,0.00,0,,51
2012-10-7,55,44,33,46,39,32,100,80,51,30.04,30.01,29.98,10,8,0,7,1,,0.00,1,Fog,232
2012-10-8,59,52,46,50,46,45,100,86,63,30.10,30.05,30.01,10,10,5,13,6,10,0.00,8,,182
2012-10-9,59,50,41,46,45,39,100,81,63,30.13,30.10,30.06,10,9,5,14,4,17,0.00,3,,18
2012-10-10,55,46,37,50,44,36,100,91,72,30.08,30.04,29.99,10,6,0,13,3,17,0.00,4,Fog,15
2012-10-11,55,46,37,50,44,36,100,91,72,30.00,29.95,29.88,10,6,0,7,2,,0.00,5,Fog,133
2012-10-12,51,50,50,52,49,46,100,94,82,30.14,30.01,29.93,10,6,2,23,9,32,1.28,8,Rain,181
2012-10-13,57,54,51,55,54,52,100,97,94,30.28,30.23,30.14,10,4,1,21,17,30,0.06,8,Rain,190
2012-10-14,59,56,53,57,56,54,100,96,88,30.21,30.10,29.98,10,5,1,32,15,44,0.97,8,Rain,191
2012-10-15,60,56,53,59,56,54,100,98,88,30.03,29.91,29.77,5,2,1,36,21,48,1.30,8,Rain,195
2012-10-16,59,52,44,55,50,43,100,91,67,30.34,30.17,29.81,10,4,1,14,4,22,0.07,3,Rain,242
2012-10-17,60,51,42,46,44,41,100,85,52,30.34,30.26,30.19,10,8,2,12,7,16,0.00,0,,52
2012-10-18,71,58,44,52,45,41,93,70,35,30.19,30.04,29.96,10,9,2,16,3,22,0.00,1,Rain,75
2012-10-19,55,53,50,55,53,46,100,95,72,30.00,29.96,29.90,10,5,0,24,12,28,0.45,8,Fog-Rain,199
2012-10-20,53,48,44,52,45,43,100,85,72,30.06,30.01,29.96,10,9,5,15,6,22,0.06,6,Rain,222
2012-10-21,51,46,41,46,44,41,100,91,76,29.96,29.87,29.72,10,10,4,9,6,,0.22,6,Rain,131
2012-10-22,51,48,42,45,43,41,93,89,71,29.74,29.65,29.58,10,10,5,16,7,24,0.13,7,Rain,160
2012-10-23,48,45,42,46,41,39,93,90,87,29.90,29.85,29.75,10,10,5,14,7,17,0.38,7,Rain,151
2012-10-24,51,46,41,46,43,39,100,90,76,30.21,30.00,29.86,10,10,4,17,8,23,0.22,5,Rain,156
2012-10-25,55,46,37,46,43,37,100,86,63,30.42,30.34,30.22,10,10,7,10,5,,0.01,2,Rain,89
2012-10-26,53,50,48,52,49,43,100,91,76,30.29,30.21,30.17,10,8,2,25,11,33,0.00,8,Rain,175
2012-10-27,55,52,50,55,53,50,100,97,88,30.18,30.06,29.98,10,4,1,29,14,39,0.99,8,Rain,188
2012-10-28,59,57,55,59,56,54,100,99,94,30.02,29.97,29.93,10,4,0,25,15,33,1.24,8,Rain,193
2012-10-29,59,56,53,57,55,54,100,98,94,30.12,30.04,29.91,10,2,0,31,18,44,0.25,8,Fog-Rain,200
2012-10-30,59,57,55,59,56,55,100,97,88,30.01,29.89,29.80,10,5,1,30,18,40,0.74,8,Rain,188
2012-10-31,55,53,51,55,53,52,100,95,88,29.79,29.71,29.65,10,7,2,28,12,36,0.94,8,Rain,175